Regional Weather Roundup
Issued by NWS

Home | Current Version | Previous Version | Graphics & Text | Print | Product List | Glossary On
Versions: 1 2 3 4 5 6 7 8 9 10 11 12 13 14 15 16 17 18 19 20 21 22 23 24 25 26 27 28 29 30 31 32 33 34 35 36 37 38 39 40 41 42 43 44 45 46 47 48 49 50
000
ASUS43 KLMK 041010
RWRKY
KENTUCKY REGIONAL WEATHER ROUNDUP
NATIONAL WEATHER SERVICE LOUISVILLE KY
600 AM EDT SAT JUL 04 2015

NOTE "FAIR" INDICATES FEW OR NO CLOUDS BELOW 12,000 FEET
WITH NO SIGNIFICANT WEATHER AND/OR OBSTRUCTIONS TO VISIBILITY.

KYZ001>023-026-027-061>063-070>075-041100-
WESTERN AND SOUTH CENTRAL KENTUCKY

CITY           SKY/WX    TMP DP  RH WIND       PRES   REMARKS
PADUCAH        CLOUDY    70  68  93 CALM      29.91R FOG
HENDERSON      CLEAR     64  64 100 NE5       29.91S
OWENSBORO      NOT AVBL
HOPKINSVILLE   CLOUDY    70  70 100 N1        29.93R FOG
BOWLING GREEN  CLOUDY    71  68  90 CALM      29.93R
GLASGOW        CLOUDY    69  69 100 CALM      29.93S
$$

KYZ024-025-028>034-038-045-046-053-041100-
NORTH CENTRAL KENTUCKY

CITY           SKY/WX    TMP DP  RH WIND       PRES   REMARKS
LOUISVILLE/SDF MOCLDY    69  67  93 CALM      29.92R
LOUISVILLE/LOU CLOUDY    69  68  96 NW3       29.93R FOG
FORT KNOX      CLOUDY    68  68 100 W2        29.92R FOG
$$

KYZ035>037-039>044-047>052-055>060-089>105-041100-
NORTHEAST KENTUCKY

CITY           SKY/WX    TMP DP  RH WIND       PRES   REMARKS
LEXINGTON      CLOUDY    67  66  97 CALM      29.94R FOG
COVINGTON      CLOUDY    67  64  90 NW6       29.94R
FRANKFORT      CLOUDY    67  65  93 CALM      29.92R FOG
$$

KYZ054-064>069-076>088-106>120-041100-
SOUTHEAST KENTUCKY

CITY           SKY/WX    TMP DP  RH WIND       PRES   REMARKS
JACKSON        CLOUDY    67  65  93 CALM      29.95R FOG
LONDON         MOCLDY    69  64  84 SW6       29.96R
SOMERSET       CLOUDY    68  68 100 CALM      29.96S
MIDDLESBORO    CLOUDY    67  67 100 CALM      29.98R
MONTICELLO     CLOUDY    70  70 100 CALM      29.98R
$$




USA.gov is the U.S. government's official web portal to all federal, state and local government web resources and services.